Location: Alvediston
(51.0078°N, 2.0364°W)
Time: 17:25:57
(UTC+00:00)

STARLINK-1057 - Pass Details

Date: 27 February 2020
Orbit: 549 x 551 km, 53.0° (Epoch: 01 April)

Event Time Altitude Azimuth Distance (km) Brightness Sun altitude
Rises 19:09:21 0° 256° (WSW) 2,715 8.7 -14.1°
Reaches altitude 10° 19:11:35 10° 258° (WSW) 1,823 7.5 -14.4°
Maximum altitude 19:15:44 80° 344° (NNW) 564 3.6 -15.1°
Enters shadow 19:18:00 26° 70° (ENE) 1,103 4.6 -15.4°
